Le nostre stazioni meteo in Italia

Pubblicità
Il mio iltempo24.it
Palermo/Punta Raisi, Italia (16405): Temperatura & dewpoint: 19.04.2018 20:00:00 - 25.04.2018 20:00:00 (CEST)Palermo/Punta Raisi, Italia (16405): velocità del vento: 19.04.2018 20:00:00 - 25.04.2018 20:00:00 (CEST)Palermo/Punta Raisi, Italia (16405): direzione del vento: 19.04.2018 20:00:00 - 25.04.2018 20:00:00 (CEST)Palermo/Punta Raisi, Italia (16405): reduced air pressure: 19.04.2018 20:00:00 - 25.04.2018 20:00:00 (CEST)Palermo/Punta Raisi, Italia (16405): visibility: 19.04.2018 20:00:00 - 25.04.2018 20:00:00 (CEST)Palermo/Punta Raisi, Italia (16405): precipitazioni: 19.04.2018 20:00:00 - 25.04.2018 20:00:00 (CEST)
Data & Tempo tt [°C] td [°C] ff [km/h] ff [kn] dd ppp [hPa] vv [km] rr [mm]
25.04.2018 20:00:00 18,1 15,7 8 4 NE 1016,9 10 -
25.04.2018 19:00:00 19,0 17,0 5 3 NNE - 10 -
25.04.2018 18:00:00 19,0 17,0 8 4 N - 10 -
25.04.2018 17:00:00 19,1 16,8 15 8 NNE 1017,2 10 0,0
25.04.2018 16:00:00 20,0 17,0 21 11 NE - 10 -
25.04.2018 15:00:00 23,0 11,0 15 8 NE - 10 -
25.04.2018 14:00:00 21,9 9,0 13 7 NE 1018,4 10 -
25.04.2018 13:00:00 20,0 15,0 13 7 NNE - 10 -
25.04.2018 12:00:00 19,0 13,0 11 6 NNE - 10 -
25.04.2018 11:00:00 19,0 12,7 5 3 N 1018,9 10 0,0
25.04.2018 10:00:00 19,0 13,0 5 3 NNO - 10 -
25.04.2018 09:00:00 17,0 11,0 8 4 OSO - 10 -
25.04.2018 08:00:00 15,8 10,0 9 5 SO 1018,6 10 -
25.04.2018 07:00:00 15,0 8,0 4 2 SSO - 10 -
25.04.2018 06:00:00 15,0 9,0 5 3 ENE - 10 -
25.04.2018 05:00:00 14,7 8,0 8 4 S 1018,0 20 0,0
25.04.2018 04:00:00 16,0 7,0 9 5 E - 10 -
25.04.2018 03:00:00 15,0 10,0 5 3 S - 10 -
25.04.2018 02:00:00 15,4 9,5 4 2 - 1018,6 10 -
25.04.2018 01:00:00 16,0 11,0 5 3 ENE - 10 -
25.04.2018 00:00:00 17,0 9,0 5 3 S - 10 -
24.04.2018 23:00:00 17,7 11,0 4 2 S 1019,3 10 0,0
24.04.2018 22:00:00 18,0 13,0 5 3 S - 10 -
24.04.2018 21:00:00 19,0 14,0 9 5 O - 10 -
24.04.2018 20:00:00 19,0 14,0 11 6 O - 10 -
24.04.2018 19:00:00 22,0 13,0 11 6 ENE - 10 -
24.04.2018 18:00:00 22,0 10,0 21 11 NE - 10 -
24.04.2018 17:00:00 22,6 12,6 16 9 NE 1018,7 10 0,0
24.04.2018 16:00:00 23,0 11,0 18 10 ENE - 10 -
24.04.2018 15:00:00 23,0 11,0 24 13 ENE - 10 -
24.04.2018 14:00:00 22,0 14,0 15 8 NE 1019,9 20 -
24.04.2018 13:00:00 22,0 15,0 9 5 NNE - 10 -
24.04.2018 12:00:00 20,0 15,0 5 3 NNO - 10 -
24.04.2018 11:00:00 19,1 13,9 5 3 NNO 1020,6 10 0,0
24.04.2018 10:00:00 18,0 12,0 5 3 O - 10 -
24.04.2018 09:00:00 18,0 11,0 2 1 N - 10 -
24.04.2018 08:00:00 16,4 11,9 4 2 SSO 1019,8 10 -
24.04.2018 07:00:00 15,0 9,0 5 3 S - 10 -
24.04.2018 06:00:00 13,0 9,0 4 2 - - 10 -
24.04.2018 05:00:00 14,9 11,9 8 4 ENE 1018,8 10 0,0
24.04.2018 04:00:00 16,0 10,0 2 1 - - 10 -
24.04.2018 03:00:00 14,0 10,0 8 4 S - 10 -
24.04.2018 02:00:00 14,2 10,4 2 1 - 1019,0 10 -
24.04.2018 01:00:00 16,0 12,0 5 3 SE - 10 -
24.04.2018 00:00:00 17,0 13,0 4 2 - - 10 -
23.04.2018 23:00:00 17,1 13,4 9 5 OSO 1019,8 10 0,0
23.04.2018 22:00:00 18,0 11,0 8 4 E - 10 -
23.04.2018 21:00:00 19,0 12,0 13 7 ENE - 10 -
23.04.2018 20:00:00 18,7 15,4 18 10 NNE 1018,9 20 -
23.04.2018 19:00:00 22,0 9,0 18 10 ENE - 10 -
23.04.2018 18:00:00 21,0 11,0 22 12 NE - 10 -
23.04.2018 17:00:00 20,1 14,1 22 12 NE 1018,7 20 0,0
23.04.2018 16:00:00 20,0 16,0 21 11 NE - 10 -
23.04.2018 15:00:00 19,0 15,0 26 14 NE - 10 -
23.04.2018 14:00:00 19,2 15,0 24 13 NE 1019,7 20 -
23.04.2018 13:00:00 19,0 16,0 16 9 NNE - 10 -
23.04.2018 12:00:00 - - - - - - - -
23.04.2018 11:00:00 18,3 15,1 11 6 N 1020,9 30 0,0
23.04.2018 10:00:00 17,0 14,0 8 4 NNO - 10 -
23.04.2018 09:00:00 17,0 14,0 8 4 NNO - 10 -
23.04.2018 08:00:00 16,8 13,8 8 4 N 1020,0 30 -
23.04.2018 07:00:00 14,0 12,0 5 3 ENE - 10 -
23.04.2018 06:00:00 14,0 12,0 5 3 S - 7 -
23.04.2018 05:00:00 13,6 11,1 4 2 S 1019,3 7 0,0
23.04.2018 04:00:00 14,0 12,0 11 6 SSO - 7 -
23.04.2018 03:00:00 16,0 13,0 5 3 ENE - 9 -
23.04.2018 02:00:00 15,6 12,5 2 1 - 1019,8 9 -
23.04.2018 01:00:00 16,0 13,0 5 3 SSO - 9 -
23.04.2018 00:00:00 16,0 14,0 11 6 SO - 9 -
22.04.2018 23:00:00 16,5 13,8 4 2 - 1020,1 10 0,0
22.04.2018 22:00:00 18,0 13,0 5 3 ENE - 10 -
22.04.2018 21:00:00 18,0 14,0 9 5 NE - 10 -
22.04.2018 20:00:00 18,0 14,4 9 5 NE 1018,8 10 -
22.04.2018 19:00:00 19,0 15,0 11 6 NE - 10 -
22.04.2018 18:00:00 19,0 15,0 5 3 NNE - 10 -
22.04.2018 17:00:00 19,5 14,6 11 6 ONO 1018,6 10 0,0
22.04.2018 16:00:00 19,0 16,0 5 3 NO - 10 -
22.04.2018 15:00:00 19,0 16,0 15 8 NNE - 10 -
22.04.2018 14:00:00 19,1 15,8 18 10 NNE 1019,1 10 -
22.04.2018 13:00:00 19,0 16,0 18 10 NE - 10 -
22.04.2018 12:00:00 18,0 16,0 15 8 NNE - 10 -
22.04.2018 11:00:00 17,6 15,4 9 5 NNE 1019,5 10 0,0
22.04.2018 10:00:00 18,0 15,0 15 8 NNE - 8 -
22.04.2018 09:00:00 17,0 14,0 8 4 NNE - 10 -
22.04.2018 08:00:00 16,4 14,0 2 1 N 1019,1 8 -
22.04.2018 07:00:00 - - - - - - - -
22.04.2018 06:00:00 - - - - - - - -
22.04.2018 05:00:00 13,8 12,5 8 4 S 1018,7 - 0,0
22.04.2018 04:00:00 - - - - - - - -
22.04.2018 03:00:00 - - - - - - - -
22.04.2018 02:00:00 15,4 13,7 9 5 ENE 1019,2 - -
22.04.2018 01:00:00 - - - - - - - -
22.04.2018 00:00:00 - - - - - - - -
21.04.2018 23:00:00 15,6 14,1 8 4 SSO 1019,5 6 0,0
21.04.2018 22:00:00 - - - - - - - -
21.04.2018 21:00:00 17,0 14,0 5 3 ESE - 10 -
21.04.2018 20:00:00 17,1 14,7 8 4 NE 1018,8 10 -
21.04.2018 19:00:00 18,0 15,0 13 7 NE - 10 -
21.04.2018 18:00:00 18,0 15,0 8 4 N - 10 -
21.04.2018 17:00:00 18,3 14,6 5 3 N 1019,4 10 0,0
21.04.2018 16:00:00 19,0 15,0 4 2 - - 8 -
21.04.2018 15:00:00 18,0 15,0 9 5 NO - 10 -
21.04.2018 14:00:00 18,7 15,5 9 5 ONO 1020,0 10 -
21.04.2018 13:00:00 18,0 16,0 8 4 NO - 10 -
21.04.2018 12:00:00 17,0 15,0 5 3 NNE - 10 -
21.04.2018 11:00:00 16,2 14,8 4 2 - 1020,4 10 0,0
21.04.2018 10:00:00 16,0 14,0 9 5 OSO - 10 -
21.04.2018 09:00:00 15,0 14,0 13 7 SO - 3,0 -
21.04.2018 08:00:00 14,7 14,0 9 5 SSO 1019,5 3,0 -
21.04.2018 07:00:00 14,0 13,0 4 2 - - 4,0 -
21.04.2018 06:00:00 15,0 14,0 13 7 OSO - 7 -
21.04.2018 05:00:00 14,2 13,1 13 7 SO 1018,8 10 0,0
21.04.2018 04:00:00 15,0 14,0 8 4 SSE - 10 -
21.04.2018 03:00:00 16,0 15,0 5 3 SSE - 10 -
21.04.2018 02:00:00 15,8 14,8 4 2 SSE 1019,8 10 -
21.04.2018 01:00:00 17,0 15,0 5 3 ONO - 10 -
21.04.2018 00:00:00 17,0 16,0 9 5 OSO - 10 -
20.04.2018 23:00:00 15,6 13,9 5 3 S 1020,0 10 0,0
20.04.2018 22:00:00 17,0 16,0 2 1 - - 10 -
20.04.2018 21:00:00 17,0 15,0 5 3 SO - 10 -
20.04.2018 20:00:00 17,1 15,8 4 2 SSO 1019,6 10 -
20.04.2018 19:00:00 18,0 16,0 8 4 SO - 10 -
20.04.2018 18:00:00 18,0 16,0 4 2 O - 10 -
20.04.2018 17:00:00 18,3 15,2 4 2 N 1019,8 10 0,0
20.04.2018 16:00:00 18,0 15,0 13 7 NNE - 10 -
20.04.2018 15:00:00 18,0 14,0 11 6 NNE - 10 -
20.04.2018 14:00:00 17,9 15,3 16 9 NNE 1020,6 10 -
20.04.2018 13:00:00 18,0 15,0 11 6 N - 10 -
20.04.2018 12:00:00 18,0 15,0 9 5 N - 10 -
20.04.2018 11:00:00 17,1 13,9 9 5 N 1021,4 10 0,0
20.04.2018 10:00:00 17,0 13,0 8 4 N - 10 -
20.04.2018 09:00:00 16,0 13,0 4 2 - - 10 -
20.04.2018 08:00:00 15,4 13,2 0 0 N 1020,7 10 -
20.04.2018 07:00:00 14,0 12,0 4 2 - - 10 -
20.04.2018 06:00:00 15,0 12,0 4 2 - - 10 -
20.04.2018 05:00:00 12,8 10,6 4 2 N 1020,5 20 0,0
20.04.2018 04:00:00 13,0 12,0 9 5 SSO - 10 -
20.04.2018 03:00:00 14,0 12,0 4 2 SSO - 10 -
20.04.2018 02:00:00 14,3 12,8 5 3 SSE 1021,7 20 -
20.04.2018 01:00:00 15,0 13,0 2 1 - - 10 -
20.04.2018 00:00:00 16,0 14,0 5 3 OSO - 10 -
19.04.2018 23:00:00 15,5 13,1 5 3 SO 1022,3 10 0,0
19.04.2018 22:00:00 16,0 14,0 5 3 S - 10 -
19.04.2018 21:00:00 16,0 14,0 4 2 N - 10 -
19.04.2018 20:00:00 16,5 14,2 4 2 OSO 1022,0 10 -

tt = Temperatura
td = dewpoint
ff = velocità del vento
dd = direzione del vento
ppp = reduced air pressure
vv = visibility
rr = precipitazioni

Stazioni seguenti

WeatherPro
AMSI
MeteoEarth